EW7175 Weather Reports


Display with metric or nautical units.
time (UTC)temp
F
wind
direction
speed
MPH
gust
MPH
rain 1hr
in
rain 24hr
in
rain mn
in
humidity
%
barometer
mb
20190326183026 74 67 2.0 10.0 0.00 0.00 0.00 46 1024.5
20190326181548 73 360 4.0 9.0 0.00 0.00 0.00 47 1024.8
20190326180033 73 360 3.0 10.0 0.00 0.00 0.00 48 1025.1
20190326174527 71 40 1.0 6.0 0.00 0.00 0.00 51 1025.2
20190326173025 72 341 2.0 9.0 0.00 0.00 0.00 50 1025.5
20190326171544 71 355 2.0 11.0 0.00 0.00 0.00 51 1025.7
20190326170056 70 12 2.0 9.0 0.00 0.00 0.00 52 1025.9
20190326164512 69 36 4.0 8.0 0.00 0.00 0.00 53 1025.8
20190326163027 69 81 3.0 7.0 0.00 0.00 0.00 54 1025.9
20190326161506 67 97 1.0 6.0 0.00 0.00 0.00 56 1026.0
20190326160430 67 15 3.0 8.0 0.00 0.00 0.00 56 1026.0
20190326154656 66 26 1.0 9.0 0.00 0.00 0.00 58 1026.0
20190326153152 65 102 1.0 8.0 0.00 0.00 0.00 61 1026.0
20190326151649 65 66 3.0 6.0 0.00 0.00 0.00 61 1025.8
20190326150114 64 10 4.0 12.0 0.00 0.00 0.00 62 1025.6
20190326144616 63 75 1.0 11.0 0.00 0.00 0.00 67 1025.5
20190326143228 61 5 1.0 5.0 0.00 0.00 0.00 68 1025.2
20190326141653 61 49 3.0 9.0 0.00 0.00 0.00 69 1025.0
20190326140103 59 26 1.0 5.0 0.00 0.00 0.00 73 1024.9
20190326134629 58 81 2.0 7.0 0.00 0.00 0.00 74 1024.7
20190326133125 58 10 1.0 3.0 0.00 0.00 0.00 77 1024.6
20190326131614 57 31 1.0 4.0 0.00 0.00 0.00 78 1024.3
20190326130115 56 23 2.0 6.0 0.00 0.00 0.00 79 1024.0
20190326124549 55 30 0.0 5.0 0.00 0.00 0.00 79 1023.8
20190326123058 56 41 0.0 1.0 0.00 0.00 0.00 79 1023.7
20190326121544 56 41 0.0 3.0 0.00 0.00 0.00 78 1023.6
20190326120040 56 360 2.0 5.0 0.00 0.00 0.00 78 1023.5
20190326114557 57 49 0.0 4.0 0.00 0.00 0.00 77 1023.4
20190326113100 57 15 1.0 5.0 0.00 0.00 0.00 77 1023.3
20190326111533 57 15 0.0 4.0 0.00 0.00 0.00 77 1023.1
20190326110031 57 39 1.0 4.0 0.00 0.00 0.00 77 1023.1
20190326104523 57 40 1.0 4.0 0.00 0.00 0.00 76 1022.9
20190326103017 58 24 1.0 5.0 0.00 0.00 0.00 76 1022.7
20190326101525 58 21 1.0 4.0 0.00 0.00 0.00 75 1022.7
20190326100030 58 351 1.0 4.0 0.00 0.00 0.00 75 1022.5
20190326094515 59 50 2.0 6.0 0.00 0.00 0.00 74 1022.4
20190326093035 58 15 2.0 5.0 0.00 0.00 0.00 75 1022.3
20190326091530 58 17 1.0 4.0 0.00 0.00 0.00 75 1022.3
20190326090009 58 10 1.0 4.0 0.00 0.00 0.00 75 1022.1
20190326084508 58 15 0.0 2.0 0.00 0.00 0.00 74 1021.9
20190326083019 59 15 1.0 3.0 0.00 0.00 0.00 74 1022.0
20190326081504 59 5 1.0 3.0 0.00 0.00 0.00 73 1022.0
20190326080009 59 360 1.0 3.0 0.00 0.00 0.00 73 1022.0
20190326074657 59 22 1.0 5.0 0.00 0.00 0.00 73 1021.9
20190326073223 58 19 1.0 2.0 0.00 0.00 0.00 75 1021.9
20190326071646 58 19 0.0 0.0 0.00 0.00 0.00 75 1021.9
20190326070150 58 19 0.0 0.0 0.00 0.00 0.00 73 1021.8
20190326064613 59 19 0.0 0.0 0.00 0.00 0.00 71 1021.7
20190326063108 60 19 0.0 0.0 0.00 0.00 0.00 70 1021.6
20190326061628 61 19 0.0 0.0 0.00 0.00 0.00 68 1021.5
20190326060112 62 19 0.0 2.0 0.00 0.00 0.00 67 1021.5
20190326054557 63 17 0.0 1.0 0.00 0.00 0.00 66 1021.3
20190326053059 64 17 0.0 1.0 0.00 0.00 0.00 62 1021.4
20190326051605 65 17 0.0 2.0 0.00 0.00 0.00 59 1021.3
20190326050059 65 18 0.0 3.0 0.00 0.00 0.00 59 1021.4
20190326044538 66 31 1.0 4.0 0.00 0.00 0.00 59 1021.3
20190326043106 66 23 0.0 3.0 0.00 0.00 0.00 60 1021.2
20190326041614 67 23 0.0 2.0 0.00 0.00 0.00 61 1021.3
20190326040106 67 22 1.0 2.0 0.00 0.00 0.00 61 1021.1
20190326034558 68 21 1.0 3.0 0.00 0.00 0.00 60 1020.9
20190326033042 69 26 1.0 3.0 0.00 0.00 0.00 59 1020.7
20190326031548 70 20 1.0 4.0 0.00 0.00 0.00 57 1020.5
20190326030040 70 5 2.0 5.0 0.00 0.00 0.00 55 1020.3
20190326024519 71 5 2.0 4.0 0.00 0.00 0.00 54 1020.0
20190326023024 72 9 1.0 6.0 0.00 0.00 0.00 53 1019.8
20190326021551 72 5 1.0 5.0 0.00 0.00 0.00 55 1019.5
20190326020030 72 5 1.0 3.0 0.00 0.00 0.00 56 1019.2
20190326014558 73 351 0.0 3.0 0.00 0.00 0.00 56 1018.9
20190326013017 74 360 0.0 3.0 0.00 0.00 0.00 55 1018.7
20190326011526 75 5 2.0 5.0 0.00 0.00 0.00 54 1018.5
20190326010016 76 27 2.0 8.0 0.00 0.00 0.00 53 1018.3
20190326004543 77 10 1.0 5.0 0.00 0.00 0.00 53 1018.1
20190326003016 78 355 2.0 6.0 0.00 0.00 0.00 51 1017.9
20190326001513 79 29 4.0 11.0 0.00 0.00 0.00 50 1017.7
20190326000003 79 37 3.0 11.0 0.00 0.00 0.00 52 1017.4
20190325234502 80 5 2.0 9.0 0.00 0.00 0.00 56 1017.3
20190325233146 81 5 2.0 9.0 0.00 0.00 0.00 57 1017.1
20190325231719 81 10 2.0 10.0 0.00 0.00 0.00 58 1017.0
20190325230153 81 355 3.0 11.0 0.00 0.00 0.00 59 1016.8
20190325224706 82 351 4.0 14.0 0.00 0.00 0.00 58 1016.9
20190325223221 82 12 5.0 11.0 0.00 0.00 0.00 58 1016.7
20190325221627 82 311 6.0 12.0 0.00 0.00 0.00 59 1016.6
20190325220235 82 336 4.0 11.0 0.00 0.00 0.00 57 1016.6
20190325214640 83 343 4.0 9.0 0.00 0.00 0.00 57 1016.6
20190325213105 82 345 4.0 10.0 0.00 0.00 0.00 57 1016.6
20190325211557 84 341 4.0 9.0 0.00 0.00 0.00 55 1016.5
20190325210138 84 312 2.0 9.0 0.00 0.00 0.00 56 1016.6
20190325204607 83 246 2.0 6.0 0.00 0.00 0.00 57 1016.7
20190325203110 83 334 2.0 6.0 0.00 0.00 0.00 58 1016.9
20190325201610 82 281 3.0 4.0 0.00 0.00 0.00 60 1017.2
20190325200056 82 338 2.0 10.0 0.00 0.00 0.00 62 1017.3
20190325194558 82 267 1.0 4.0 0.00 0.00 0.00 63 1017.5
20190325193123 81 11 2.0 9.0 0.00 0.00 0.00 64 1017.6
20190325191551 81 333 2.0 8.0 0.00 0.00 0.00 64 1017.8
20190325190141 80 279 2.0 6.0 0.00 0.00 0.00 67 1017.9
20190325184545 78 209 1.0 9.0 0.00 0.00 0.00 70 1018.3